Location: Long Island Community Building
(39.9491°N, 99.5338°W)
Time: 19:27:53
(UTC+00:00)

SWAS - Pass Details

Date: 06 December 2019
Orbit: 579 x 592 km, 69.9° (Epoch: 27 January)

Event Time Altitude Azimuth Distance (km) Brightness Sun altitude
Rises 13:01:21 0° 210° (SSW) 2,797 7.8 -8.4°
Reaches altitude 10° 13:03:35 10° 213° (SSW) 1,903 7.0 -8.0°
Maximum altitude 13:07:49 65° 296° (WNW) 648 4.4 -7.3°
Drops below altitude 10° 13:12:06 10° 19° (NNE) 1,925 7.1 -6.5°
Sets 13:14:22 0° 22° (NNE) 2,832 7.9 -6.1°
